Hourly Weather Ekaterinburg

Today, 3 August, Monday

Time Temperature Precipitation Wind Pressure Humidity
00:00 +16°C° 0.9 mm 2 mps 722 mmHg 95%
01:00 +16°C° 0.9 mm 1 mps 722 mmHg 96%
02:00 +16°C° 0.1 mm 1 mps 722 mmHg 96%
03:00 +16°C° 0.1 mm 1 mps 722 mmHg 95%
04:00 +16°C° 0 mm 1 mps 722 mmHg 95%
05:00 +16°C° 0.1 mm 1 mps 723 mmHg 94%
06:00 +18°C° 0.1 mm 1 mps 723 mmHg 93%
07:00 +19°C° 0.1 mm 1 mps 723 mmHg 92%
08:00 +20°C° 0 mm 1 mps 723 mmHg 83%
09:00 +21°C° 0 mm 2 mps 723 mmHg 74%
10:00 +23°C° 0 mm 1 mps 723 mmHg 71%
11:00 +24°C° 0 mm 2 mps 723 mmHg 67%
12:00 +25°C° 0 mm 2 mps 724 mmHg 63%
13:00 +26°C° 0 mm 3 mps 724 mmHg 59%
14:00 +26°C° 0.8 mm 2 mps 724 mmHg 67%
15:00 +25°C° 0.8 mm 2 mps 724 mmHg 76%
16:00 +25°C° 0 mm 1 mps 724 mmHg 79%
17:00 +24°C° 0.9 mm 1 mps 724 mmHg 83%
18:00 +23°C° 0.9 mm 1 mps 724 mmHg 87%
19:00 +22°C° 0.9 mm 1 mps 723 mmHg 90%
20:00 +20°C° 0.7 mm 2 mps 724 mmHg 92%
21:00 +19°C° 0.7 mm 2 mps 724 mmHg 94%
22:00 +18°C° 0.7 mm 2 mps 724 mmHg 96%
23:00 +18°C° 2 mm 2 mps 724 mmHg 97%

Tomorrow, 4 August, Tuesday

Time Temperature Precipitation Wind Pressure Humidity
00:00 +18°C° 2 mm 3 mps 724 mmHg 98%
01:00 +18°C° 2 mm 3 mps 724 mmHg 98%
02:00 +17°C° 0.2 mm 3 mps 724 mmHg 98%
03:00 +17°C° 0.2 mm 3 mps 724 mmHg 98%
04:00 +17°C° 0.2 mm 3 mps 725 mmHg 98%
05:00 +17°C° 0.1 mm 3 mps 724 mmHg 98%
06:00 +18°C° 0.1 mm 3 mps 724 mmHg 97%
07:00 +18°C° 0.1 mm 3 mps 724 mmHg 97%
08:00 +19°C° 0 mm 3 mps 725 mmHg 93%
09:00 +20°C° 0 mm 3 mps 725 mmHg 89%
10:00 +21°C° 0 mm 3 mps 725 mmHg 85%
11:00 +24°C° 0 mm 3 mps 725 mmHg 78%
12:00 +25°C° 0 mm 3 mps 725 mmHg 71%
13:00 +27°C° 0 mm 3 mps 725 mmHg 64%
14:00 +27°C° 1.1 mm 3 mps 725 mmHg 68%
15:00 +27°C° 1.1 mm 3 mps 726 mmHg 71%
16:00 +27°C° 1.1 mm 3 mps 726 mmHg 75%
17:00 +25°C° 0.5 mm 3 mps 726 mmHg 80%
18:00 +24°C° 0.5 mm 3 mps 726 mmHg 86%
19:00 +21°C° 0.5 mm 4 mps 726 mmHg 91%
20:00 +20°C° 0 mm 4 mps 726 mmHg 93%
21:00 +19°C° 0 mm 4 mps 727 mmHg 95%
22:00 +18°C° 0 mm 4 mps 727 mmHg 97%
23:00 +17°C° 0 mm 3 mps 727 mmHg 97%

Day after tomorrow, 5 August, Wednesday

Time Temperature Precipitation Wind Pressure Humidity
00:00 +17°C° 0 mm 3 mps 727 mmHg 97%
01:00 +17°C° 0 mm 3 mps 727 mmHg 97%
02:00 +16°C° 0 mm 3 mps 727 mmHg 97%
03:00 +16°C° 0 mm 3 mps 728 mmHg 97%
04:00 +16°C° 0 mm 3 mps 728 mmHg 97%
05:00 +16°C° 0 mm 3 mps 728 mmHg 96%
06:00 +16°C° 0 mm 3 mps 728 mmHg 96%
07:00 +16°C° 0 mm 3 mps 728 mmHg 95%
08:00 +17°C° 0 mm 3 mps 728 mmHg 92%
09:00 +18°C° 0 mm 3 mps 729 mmHg 88%
10:00 +19°C° 0 mm 3 mps 729 mmHg 84%
11:00 +20°C° 0 mm 3 mps 729 mmHg 79%
12:00 +22°C° 0 mm 3 mps 729 mmHg 74%
13:00 +25°C° 0 mm 3 mps 729 mmHg 69%
14:00 +25°C° 0.1 mm 3 mps 729 mmHg 70%
15:00 +25°C° 0.1 mm 3 mps 729 mmHg 70%
16:00 +26°C° 0.1 mm 3 mps 729 mmHg 70%
17:00 +25°C° 0 mm 3 mps 729 mmHg 76%
18:00 +24°C° 0 mm 2 mps 729 mmHg 82%
19:00 +21°C° 0 mm 2 mps 728 mmHg 87%
20:00 +20°C° 0 mm 2 mps 728 mmHg 91%
21:00 +19°C° 0 mm 2 mps 729 mmHg 94%
22:00 +18°C° 0 mm 2 mps 729 mmHg 98%
23:00 +18°C° 0 mm 2 mps 729 mmHg 98%

6 August, Thursday

Time Temperature Precipitation Wind Pressure Humidity
00:00 +19°C° 0 mm 1 mps 729 mmHg 98%
01:00 +19°C° 0 mm 1 mps 729 mmHg 99%
02:00 +18°C° 0 mm 1 mps 729 mmHg 99%
03:00 +18°C° 0 mm 1 mps 729 mmHg 99%
04:00 +18°C° 0 mm 1 mps 729 mmHg 99%
05:00 +18°C° 0 mm 2 mps 729 mmHg 98%
06:00 +18°C° 0 mm 2 mps 729 mmHg 97%
07:00 +19°C° 0 mm 2 mps 729 mmHg 96%
08:00 +20°C° 0 mm 2 mps 729 mmHg 93%
09:00 +20°C° 0 mm 2 mps 729 mmHg 90%
10:00 +22°C° 0 mm 1 mps 729 mmHg 87%
11:00 +24°C° 0 mm 2 mps 729 mmHg 77%
12:00 +26°C° 0 mm 2 mps 729 mmHg 66%
13:00 +28°C° 0 mm 2 mps 729 mmHg 56%
14:00 +28°C° 0.2 mm 2 mps 729 mmHg 58%
15:00 +28°C° 0.2 mm 2 mps 729 mmHg 60%
16:00 +28°C° 0.2 mm 2 mps 728 mmHg 61%
17:00 +26°C° 0.1 mm 2 mps 728 mmHg 69%
18:00 +25°C° 0.1 mm 1 mps 728 mmHg 76%
19:00 +23°C° 0.1 mm 1 mps 727 mmHg 84%
20:00 +22°C° 0 mm 1 mps 727 mmHg 88%
21:00 +21°C° 0 mm 1 mps 727 mmHg 92%
22:00 +20°C° 0 mm 1 mps 727 mmHg 95%
23:00 +17°C° 0 mm 0 mps 727 mmHg 96%

7 August, Friday

Time Temperature Precipitation Wind Pressure Humidity
00:00 +17°C° 0 mm 0 mps 727 mmHg 96%
01:00 +17°C° 0 mm 0 mps 727 mmHg 96%
02:00 +16°C° 0 mm 0 mps 727 mmHg 97%
03:00 +16°C° 0 mm 0 mps 727 mmHg 97%
04:00 +16°C° 0 mm 0 mps 726 mmHg 97%
05:00 +19°C° 0 mm 1 mps 726 mmHg 94%
06:00 +20°C° 0 mm 1 mps 726 mmHg 92%
07:00 +21°C° 0 mm 1 mps 726 mmHg 89%
08:00 +23°C° 0 mm 1 mps 726 mmHg 80%
09:00 +24°C° 0 mm 2 mps 726 mmHg 71%
10:00 +26°C° 0 mm 2 mps 726 mmHg 62%
11:00 +27°C° 0 mm 2 mps 726 mmHg 58%
12:00 +28°C° 0 mm 2 mps 726 mmHg 54%
13:00 +28°C° 0 mm 2 mps 725 mmHg 50%
14:00 +28°C° 0 mm 2 mps 725 mmHg 51%
15:00 +28°C° 0 mm 2 mps 725 mmHg 52%
16:00 +28°C° 0 mm 2 mps 724 mmHg 53%
17:00 +26°C° 0 mm 2 mps 724 mmHg 61%
18:00 +25°C° 0 mm 2 mps 724 mmHg 69%
19:00 +23°C° 0 mm 2 mps 723 mmHg 78%
20:00 +22°C° 0.1 mm 1 mps 723 mmHg 82%
21:00 +20°C° 0.1 mm 1 mps 722 mmHg 86%
22:00 +19°C° 0.1 mm 1 mps 722 mmHg 90%
23:00 +18°C° 0 mm 1 mps 722 mmHg 91%

8 August, Saturday

Time Temperature Precipitation Wind Pressure Humidity
00:00 +18°C° 0 mm 1 mps 722 mmHg 91%
01:00 +18°C° 0 mm 1 mps 721 mmHg 92%
02:00 +16°C° 0 mm 1 mps 721 mmHg 93%
03:00 +16°C° 0 mm 1 mps 721 mmHg 93%
04:00 +16°C° 0 mm 1 mps 720 mmHg 94%
05:00 +17°C° 0.1 mm 0 mps 720 mmHg 88%
06:00 +18°C° 0.1 mm 0 mps 721 mmHg 82%
07:00 +20°C° 0.1 mm 0 mps 721 mmHg 77%
08:00 +23°C° 1 mm 1 mps 721 mmHg 75%
09:00 +24°C° 1 mm 1 mps 721 mmHg 74%
10:00 +25°C° 1 mm 1 mps 720 mmHg 72%
11:00 +24°C° 1.9 mm 2 mps 720 mmHg 77%
12:00 +23°C° 1.9 mm 2 mps 720 mmHg 83%
13:00 +21°C° 1.9 mm 3 mps 720 mmHg 88%
14:00 +20°C° 1 mm 2 mps 720 mmHg 90%
15:00 +20°C° 1 mm 2 mps 719 mmHg 92%
16:00 +19°C° 1 mm 2 mps 719 mmHg 94%
17:00 +19°C° 0.5 mm 2 mps 719 mmHg 95%
18:00 +18°C° 0.5 mm 2 mps 719 mmHg 95%
19:00 +19°C° 0.5 mm 1 mps 719 mmHg 95%
20:00 +17°C° 0.4 mm 2 mps 719 mmHg 96%
21:00 +17°C° 0.4 mm 2 mps 719 mmHg 97%
22:00 +17°C° 0.4 mm 2 mps 719 mmHg 98%
23:00 +16°C° 0.2 mm 3 mps 719 mmHg 97%
Show more